EW7857 Weather Reports


time (UTC)temp
F
wind
direction
speed
knots
gust
knots
rain 1hr
in
rain 24hr
in
rain mn
in
humidity
%
barometer
mb
20260504232003 61 173 1.7 7.8 0.00 0.00 0.00 56 1008.7
20260504231503 61 0 0.0 6.1 0.00 0.00 0.00 55 1008.6
20260504231003 62 0 0.0 4.3 0.00 0.00 0.00 54 1008.7
20260504230504 62 0 0.0 4.3 0.00 0.00 0.00 54 1008.6
20260504230003 62 141 0.9 8.7 0.00 0.00 0.00 53 1008.6
20260504225503 63 142 0.9 8.7 0.00 0.00 0.00 52 1008.5
20260504225003 63 0 0.0 3.5 0.00 0.00 0.00 51 1008.5
20260504224503 63 163 0.9 5.2 0.00 0.00 0.00 51 1008.5
20260504224003 63 159 1.7 5.2 0.00 0.00 0.00 50 1008.5
20260504223503 64 161 1.7 9.6 0.00 0.00 0.00 50 1008.5
20260504223003 64 169 1.7 9.6 0.00 0.00 0.00 49 1008.5
20260504222503 64 171 1.7 7.8 0.00 0.00 0.00 48 1008.5
20260504222003 64 179 1.7 7.0 0.00 0.00 0.00 47 1008.4
20260504221503 65 184 1.7 7.0 0.00 0.00 0.00 46 1008.4
20260504221003 66 180 0.9 5.2 0.00 0.00 0.00 46 1008.3
20260504220717 66 160 0.9 9.6 0.00 0.00 0.00 45 1008.4
20260504220218 66 173 0.9 9.6 0.00 0.00 0.00 43 1008.4
20260504215503 66 165 1.7 13.0 0.00 0.00 0.00 41 1008.4
20260504215218 66 162 1.7 13.0 0.00 0.00 0.00 41 1008.4
20260504214503 66 175 2.6 14.8 0.00 0.00 0.00 41 1008.4
20260504214003 67 182 3.5 15.6 0.00 0.00 0.00 40 1008.6
20260504213503 68 174 1.7 15.6 0.00 0.00 0.00 40 1008.5
20260504213003 68 145 1.7 10.4 0.00 0.00 0.00 39 1008.5
20260504212503 68 152 1.7 9.6 0.00 0.00 0.00 39 1008.3
20260504212003 69 166 1.7 12.2 0.00 0.00 0.00 39 1008.3
20260504211716 69 166 0.9 12.2 0.00 0.00 0.00 39 1008.4
20260504211003 70 159 2.6 12.2 0.00 0.00 0.00 38 1008.3
20260504210503 70 182 2.6 12.2 0.00 0.00 0.00 38 1008.3
20260504210003 70 200 2.6 9.6 0.00 0.00 0.00 39 1008.2
20260504205503 70 193 1.7 10.4 0.00 0.00 0.00 39 1008.3
20260504205003 70 172 2.6 11.3 0.00 0.00 0.00 39 1008.1
20260504204503 70 171 2.6 11.3 0.00 0.00 0.00 36 1008.3
20260504204217 70 159 1.7 8.7 0.00 0.00 0.00 36 1008.3
20260504203503 70 166 3.5 13.9 0.00 0.00 0.00 36 1008.3
20260504203217 70 173 2.6 13.9 0.00 0.00 0.00 36 1008.2
20260504202503 71 146 2.6 13.9 0.00 0.00 0.00 35 1008.2
20260504202003 71 161 2.6 13.9 0.00 0.00 0.00 35 1008.3
20260504201503 71 167 3.5 12.2 0.00 0.00 0.00 35 1008.1
20260504201003 71 172 2.6 12.2 0.00 0.00 0.00 34 1008.0
20260504200503 71 195 1.7 13.0 0.00 0.00 0.00 34 1008.1
20260504200003 71 171 2.6 13.0 0.00 0.00 0.00 35 1008.1
20260504195503 71 152 2.6 13.9 0.00 0.00 0.00 34 1008.3
20260504195003 71 166 2.6 13.9 0.00 0.00 0.00 35 1008.4
20260504194503 70 176 3.5 12.2 0.00 0.00 0.00 36 1008.3
20260504194003 71 160 3.5 12.2 0.00 0.00 0.00 34 1008.3
20260504193503 71 162 3.5 12.2 0.00 0.00 0.00 33 1008.2
20260504193003 72 168 3.5 12.2 0.00 0.00 0.00 34 1008.2
20260504192503 72 167 3.5 13.0 0.00 0.00 0.00 34 1008.3
20260504192003 72 184 2.6 13.0 0.00 0.00 0.00 33 1008.3
20260504191503 72 160 1.7 10.4 0.00 0.00 0.00 33 1008.4
20260504191003 72 163 2.6 11.3 0.00 0.00 0.00 32 1008.1
20260504190504 72 180 2.6 12.2 0.00 0.00 0.00 33 1008.1
20260504190003 72 179 1.7 13.0 0.00 0.00 0.00 33 1008.3
20260504185503 72 168 1.7 13.0 0.00 0.00 0.00 31 1008.5
20260504185003 72 182 2.6 10.4 0.00 0.00 0.00 32 1008.4
20260504184503 71 185 2.6 10.4 0.00 0.00 0.00 31 1008.3
20260504184003 72 181 1.7 9.6 0.00 0.00 0.00 30 1008.5
20260504183503 71 176 1.7 12.2 0.00 0.00 0.00 30 1008.4
20260504183003 71 168 3.5 15.6 0.00 0.00 0.00 30 1008.6
20260504182503 71 157 3.5 15.6 0.00 0.00 0.00 31 1008.7
20260504182003 70 169 2.6 12.2 0.00 0.00 0.00 31 1008.6
20260504181503 70 195 3.5 12.2 0.00 0.00 0.00 30 1008.7
20260504181003 70 185 3.5 12.2 0.00 0.00 0.00 31 1008.8
20260504180503 70 178 2.6 13.0 0.00 0.00 0.00 31 1008.9
20260504180003 71 168 2.6 14.8 0.00 0.00 0.00 30 1008.8
20260504175503 71 158 2.6 14.8 0.00 0.00 0.00 31 1009.0
20260504175003 70 160 3.5 13.0 0.00 0.00 0.00 30 1009.1
20260504174503 70 164 3.5 17.4 0.00 0.00 0.00 30 1009.1
20260504174003 70 161 2.6 17.4 0.00 0.00 0.00 30 1009.2
20260504173717 70 159 2.6 17.4 0.00 0.00 0.00 29 1009.1
20260504173218 70 163 2.6 17.4 0.00 0.00 0.00 30 1009.2
20260504172503 70 154 3.5 18.2 0.00 0.00 0.00 31 1009.2
20260504172003 70 142 2.6 13.9 0.00 0.00 0.00 29 1009.1
20260504171503 70 143 3.5 14.8 0.00 0.00 0.00 30 1009.2
20260504171003 70 147 3.5 16.5 0.00 0.00 0.00 29 1009.1
20260504170503 70 161 3.5 16.5 0.00 0.00 0.00 30 1009.3
20260504151003 67 141 4.3 16.5 0.00 0.00 0.00 30 1010.7
20260504150718 67 138 4.3 15.6 0.00 0.00 0.00 31 1010.2
20260504141003 65 146 2.6 13.9 0.00 0.00 0.00 35 1010.8
20260504140503 65 157 1.7 7.8 0.00 0.00 0.00 36 1010.8
20260504140217 64 160 1.7 7.8 0.00 0.00 0.00 36 1010.8
20260504130503 58 116 2.6 10.4 0.00 0.00 0.00 44 1011.3
20260504110503 36 0 0.0 0.0 0.00 0.00 0.00 90 1011.5
20260504100503 35 0 0.0 0.0 0.00 0.00 0.00 85 1011.4
20260504082003 37 0 0.0 0.0 0.00 0.00 0.00 85 1010.7
20260504081503 37 0 0.0 0.0 0.00 0.00 0.00 85 1010.8
20260504081003 37 0 0.0 0.0 0.00 0.00 0.00 85 1010.8
20260504080503 36 0 0.0 0.0 0.00 0.00 0.00 85 1010.8
20260504080218 36 0 0.0 0.0 0.00 0.00 0.00 85 1010.8
20260504060217 34 0 0.0 0.0 0.00 0.00 0.00 81 1010.7
20260504050718 35 0 0.0 0.0 0.00 0.00 0.00 79 1010.6
20260504050003 35 0 0.0 0.0 0.00 0.00 0.00 78 1010.6
20260504045718 35 0 0.0 0.0 0.00 0.00 0.00 78 1010.6
20260504045003 36 0 0.0 0.0 0.00 0.00 0.00 78 1010.7
20260504044503 36 0 0.0 0.0 0.00 0.00 0.00 78 1010.7
20260504044003 36 0 0.0 0.0 0.00 0.00 0.00 77 1010.7
20260504043503 36 0 0.0 0.0 0.00 0.00 0.00 78 1010.8
20260504043003 36 0 0.0 0.0 0.00 0.00 0.00 78 1010.8
20260504042503 36 0 0.0 0.0 0.00 0.00 0.00 78 1010.8
20260504042003 36 0 0.0 0.0 0.00 0.00 0.00 75 1010.7
20260504041503 36 0 0.0 0.0 0.00 0.00 0.00 75 1010.7
20260504041003 36 0 0.0 0.0 0.00 0.00 0.00 76 1010.6
20260504040718 37 0 0.0 0.0 0.00 0.00 0.00 76 1010.5
20260504040003 37 0 0.0 0.0 0.00 0.00 0.00 73 1010.5
20260504035718 37 0 0.0 0.0 0.00 0.00 0.00 73 1010.5
20260504035217 37 0 0.0 0.0 0.00 0.00 0.00 73 1010.5
20260504034503 37 0 0.0 0.0 0.00 0.00 0.00 72 1010.5
20260504034003 37 0 0.0 0.0 0.00 0.00 0.00 72 1010.5
20260504033503 37 0 0.0 0.0 0.00 0.00 0.00 71 1010.4
20260504033003 38 0 0.0 0.0 0.00 0.00 0.00 71 1010.4
20260504032503 38 0 0.0 0.0 0.00 0.00 0.00 71 1010.4
20260504032003 38 0 0.0 0.0 0.00 0.00 0.00 70 1010.4
20260504031503 38 0 0.0 0.0 0.00 0.00 0.00 70 1010.3
20260504031003 38 0 0.0 0.0 0.00 0.00 0.00 70 1010.3
20260504030503 39 0 0.0 0.0 0.00 0.00 0.00 69 1010.3
20260504030003 39 0 0.0 0.0 0.00 0.00 0.00 68 1010.2
20260504025503 39 0 0.0 0.0 0.00 0.00 0.00 68 1010.2
20260504025216 39 0 0.0 0.0 0.00 0.00 0.00 68 1010.2
20260504024503 39 0 0.0 0.0 0.00 0.00 0.00 68 1010.2
20260504024003 39 0 0.0 0.0 0.00 0.00 0.00 67 1010.2
20260504023503 40 0 0.0 0.0 0.00 0.00 0.00 67 1010.2
20260504023003 40 0 0.0 0.0 0.00 0.00 0.00 67 1010.1
20260504022503 40 0 0.0 0.0 0.00 0.00 0.00 66 1010.2
20260504022003 40 0 0.0 0.0 0.00 0.00 0.00 66 1010.1
20260504021503 40 0 0.0 0.0 0.00 0.00 0.00 66 1010.1
20260504021218 40 0 0.0 0.0 0.00 0.00 0.00 66 1010.2
20260504020503 40 0 0.0 0.0 0.00 0.00 0.00 65 1010.1
20260504020218 40 0 0.0 0.0 0.00 0.00 0.00 65 1010.1
20260504015503 41 0 0.0 0.0 0.00 0.00 0.00 65 1010.0
20260504015003 41 0 0.0 0.0 0.00 0.00 0.00 64 1010.0
20260504014717 41 0 0.0 0.0 0.00 0.00 0.00 64 1009.9
20260504014003 41 0 0.0 0.0 0.00 0.00 0.00 63 1009.9
20260504013717 42 0 0.0 0.0 0.00 0.00 0.00 63 1009.9
20260504013003 42 0 0.0 0.0 0.00 0.00 0.00 62 1009.9
20260504012503 42 0 0.0 0.0 0.00 0.00 0.00 61 1009.8
20260504012003 43 0 0.0 0.0 0.00 0.00 0.00 60 1009.7
20260504011503 43 0 0.0 0.0 0.00 0.00 0.00 60 1009.6
20260504011003 44 0 0.0 0.0 0.00 0.00 0.00 59 1009.5
20260504010503 44 0 0.0 0.0 0.00 0.00 0.00 58 1009.5
20260504010003 44 0 0.0 0.0 0.00 0.00 0.00 57 1009.4
20260504005503 45 0 0.0 0.0 0.00 0.00 0.00 57 1009.2
20260504005003 45 0 0.0 0.0 0.00 0.00 0.00 56 1009.0
20260504004503 46 0 0.0 0.0 0.00 0.00 0.00 54 1009.0
20260504004003 46 0 0.0 0.0 0.00 0.00 0.00 53 1008.9
20260504003503 47 0 0.0 0.0 0.00 0.00 0.00 51 1008.9
20260504003218 47 0 0.0 0.0 0.00 0.00 0.00 50 1008.8
20260504002503 48 0 0.0 0.0 0.00 0.00 0.00 48 1008.8
20260504002003 49 0 0.0 0.0 0.00 0.00 0.00 47 1008.7
20260504001503 50 0 0.0 0.0 0.00 0.00 0.00 45 1008.7
20260504001003 50 0 0.0 0.0 0.00 0.00 0.00 44 1008.6
20260504000503 51 0 0.0 0.0 0.00 0.00 0.00 43 1008.6
20260504000003 52 0 0.0 0.0 0.00 0.00 0.00 42 1008.5
20260503235503 52 0 0.0 0.0 0.00 0.00 0.00 40 1008.5
20260503235003 52 0 0.0 0.0 0.00 0.00 0.00 39 1008.4
20260503234503 53 0 0.0 0.0 0.00 0.00 0.00 38 1008.4
20260503234003 53 0 0.0 0.0 0.00 0.00 0.00 37 1008.4
20260503233503 53 0 0.0 0.0 0.00 0.00 0.00 38 1008.4
20260503233003 53 0 0.0 0.9 0.00 0.00 0.00 36 1008.4
20260503232503 53 0 0.0 2.6 0.00 0.00 0.00 36 1008.4